Regional Weather Roundup
Issued by NWS

Home | Current Version | Previous Version | Graphics & Text | Print | Product List | Glossary On
Versions: 1 2 3 4 5 6 7 8 9 10 11 12 13 14 15 16 17 18 19 20 21 22 23 24 25 26 27 28 29 30 31 32 33 34 35 36 37 38 39 40 41 42 43 44 45 46 47 48 49 50
000
ASUS45 KABQ 031510
RWRNM
WEATHER ROUNDUP FOR NEW MEXICO
NATIONAL WEATHER SERVICE ALBUQUERQUE NM
800 AM MST TUE MAR 03 2015

NOTE: "FAIR" MEANS FEW OR NO CLOUDS BELOW 12,000 FEET AGL WITH NO
       SIGNIFICANT WEATHER OR OBSTRUCTIONS TO VISION.

      THIS PRODUCT IS RELEASED AS TWO VERSIONS.  ONE VERSION NEAR
      THE TOP OF THE HOUR CONTAINING PRELIMINARY DATA FROM ALBUQUERQUE
      AND OTHER STATIONS.  A FINAL VERSION WITH ADDITIONAL DATA IS
      ISSUED ABOUT 10 MINUTES AFTER THE HOUR.

NMZ501-503-504-510>518-031600-
NORTHWEST PLATEAU/NORTHCENTRAL MOUNTAINS

CITY           SKY/WX    TMP DP  RH WIND       PRES   REMARKS
FARMINGTON     CLOUDY    34  29  82 E5        29.89S WCI  30
LOS ALAMOS     MOSUNNY   31  25  77 SE3       29.91R
SANTA FE       MOSUNNY   35  27  72 S8        29.90S WCI  29
TAOS           MOSUNNY   28  19  69 SW3       29.90S
ANGEL FIRE     FAIR      25  17  69 SW12G20   29.86R WCI  15

$$
NMZ402-403-502-505>509-031600-
WESTCENTRAL MOUNTAINS/SOUTHWEST MOUNTAINS

CITY           SKY/WX    TMP DP  RH WIND       PRES   REMARKS
GALLUP         SUNNY     31  27  85 S7        29.91S WCI  24
GRANTS         SUNNY     30  25  81 NW10      29.93S WCI  21
SILVER CITY    CLOUDY    41  37  87 N6        29.95S

$$
NMZ407-409-411-412-031600-
SOUTHERN DESERTS

CITY           SKY/WX    TMP DP  RH WIND       PRES   REMARKS
LORDSBURG      DRIZZLE   43  41  93 W3        29.93R
DEMING         LGT RAIN  45  43  93 SW6       29.93S FOG
LAS CRUCES     DRIZZLE   47  46  95 W3        29.94R
HOLLOMAN AFB   LGT RAIN  51  51 100 W7        29.91R FOG
ALAMOGORDO     LGT RAIN  50  50 100 CALM      29.91R VSB 1
T OR C         LGT RAIN  43  40  89 N5        29.92R

$$
NMZ519>523-031600-
CENTRAL VALLEYS/CENTRAL HIGHLANDS

CITY           SKY/WX    TMP DP  RH WIND       PRES   REMARKS
ALBUQUERQUE    PTSUNNY   40  28  62 N10       29.92F WCI  33
DOUBLE EAGLE   PTSUNNY   36  28  75 CALM      29.91F
MORIARTY ARPT  FAIR      38  28  68 NW9       29.91F WCI  31
CLINES CORNERS PTSUNNY   33  27  78 NW24G30   29.85F WCI  20
BELEN          FAIR      41  35  80 CALM      29.93S
SOCORRO        LGT RAIN  43  35  72 CALM      29.93R

$$
NMZ524>526-539-540-031600-
SOUTHCENTRAL MOUNTAINS

CITY           SKY/WX    TMP DP  RH WIND       PRES   REMARKS
RUIDOSO        PTSUNNY   41  37  87 E5        29.93S

$$
NMZ527>531-031600-
NORTHEAST HIGHLANDS/NORTHEAST PLAINS

CITY           SKY/WX    TMP DP  RH WIND       PRES   REMARKS
LAS VEGAS      SUNNY     37  18  46 W22G35    29.85R WCI  26
RATON          MOSUNNY   39  16  39 SW12      29.80R WCI  32
CLAYTON        PTSUNNY   40  25  55 W13G21    29.81R WCI  32

$$
NMZ532>537-031600-
EASTCENTRAL PLAINS

CITY           SKY/WX    TMP DP  RH WIND       PRES   REMARKS
TUCUMCARI      PTSUNNY   43  33  68 SW9       29.86R
CANNON AFB     CLOUDY    37  36  96 W5        29.89S WCI  33
CLOVIS AIRPORT CLOUDY    36  34  93 W6        29.89F WCI  31

$$
NMZ028-029-538-031600-
SOUTHEAST PLAINS

CITY           SKY/WX    TMP DP  RH WIND       PRES   REMARKS
ROSWELL        FOG       37  36  96 N8        29.91R VSB 1/4 WCI  31
ARTESIA        CLOUDY    37  37 100 NE6       29.92R FOG     WCI  33
CARLSBAD       CLOUDY    39  37  92 SE7       29.88S FOG     WCI  34
HOBBS          FOG       37  37 100 S5        29.90R VSB 1/4 WCI  34


$$



USA.gov is the U.S. government's official web portal to all federal, state and local government web resources and services.